Poza Rica, Mexico

2:19 AM CDT on September 21, 2017 (GMT -0500)
Tajin

Weather History for MMPA - November, 2012

Change the Weather History Date:

Tuesday, November 13, 2012

  Actual Average Record
Temperature  
Mean Temperature 58 °F -  
Max Temperature 60 °F 79 °F 86 °F (1998)
Min Temperature 55 °F 65 °F 55 °F (2012)
Degree Days  
Heating Degree Days 8    
Growing Degree Days 8 (Base 50)    
Moisture  
Dew Point 59 °F    
Average Humidity 100    
Maximum Humidity 100    
Minimum Humidity 100    
Precipitation  
Precipitation 1.36 in - - ()
Sea Level Pressure  
Sea Level Pressure 30.25 in    
Wind  
Wind Speed 10 mph ()    
Max Wind Speed 15 mph    
Max Gust Speed -    
Visibility 1.3 miles    
Events Rain    
Averages and records for this station are not official NWS values.
T = Trace of Precipitation, MM = Missing Value Source: Averaged Metar Reports

Daily Weather History Graph

Daily Weather History Graph

Search for Another Location

Airport or City:

Trip Planner

Search our weather history database for the weather conditions in past years. The results will help you decide how hot, cold, wet, or windy it might be!

Date:

Astronomy

Nov. 13, 2012 Rise Set
Actual Time 6:38 AM CST 5:49 PM CST
Civil Twilight 6:15 AM CST 6:12 PM CST
Nautical Twilight 5:48 AM CST 6:39 PM CST
Astronomical Twilight 5:22 AM CST 7:05 PM CST
Moon 6:17 AM CST (11/13) 5:47 PM CST (11/13)
Length of Visible Light 11h 57m
Length of Day
11h 10m
Waning Crescent, 0% of the Moon is Illuminated
Nov 13
Waning Crescent
Nov 13
New
Nov 20
First Quarter
Nov 28
Full
Dec 6
Last Quarter

Hourly Weather History & Observations

Time (CST) Temp. Dew Point Humidity Pressure Visibility Wind Dir Wind Speed Gust Speed Precip Events Conditions
6:00 AM 57.2 °F 57.2 °F 100% 30.26 in 0.5 mi NNW 13.8 mph - N/A   Drizzle
6:30 AM 57.2 °F 57.2 °F 100% 30.26 in 0.5 mi NNW 15.0 mph - N/A   Overcast
6:45 AM 57.2 °F 57.2 °F 100% 30.29 in 0.8 mi NNW 11.5 mph - N/A   Drizzle
7:40 AM 57.2 °F 57.2 °F 100% 30.30 in 0.8 mi NNW 13.8 mph - N/A Rain Light Rain
8:40 AM 55.4 °F 55.4 °F 100% 30.28 in 0.8 mi WNW 9.2 mph - N/A Rain Light Rain
9:43 AM 57.2 °F 57.2 °F 100% 30.31 in 0.8 mi WNW 9.2 mph - N/A Rain Light Rain
10:30 AM 57.2 °F 57.2 °F 100% 30.30 in 1.5 mi WNW 9.2 mph - N/A   Light Drizzle
10:45 AM 57.2 °F 57.2 °F 100% 30.30 in 1.5 mi WNW 9.2 mph - N/A   Light Drizzle
11:40 AM 59.0 °F 59.0 °F 100% 30.26 in 1.5 mi NNW 11.5 mph - N/A   Drizzle
12:15 PM 60.8 °F 60.8 °F 100% 30.37 in 0.8 mi WNW 9.2 mph - N/A   Drizzle
12:45 PM 60.8 °F 60.8 °F 100% 30.37 in 0.8 mi WNW 11.5 mph - N/A   Drizzle
1:40 PM 60.8 °F 60.8 °F 100% 30.20 in 0.8 mi WNW 13.8 mph - N/A Rain Light Rain
2:44 PM 60.8 °F 60.8 °F 100% 30.10 in 0.8 mi NNW 6.9 mph - N/A   Light Drizzle
3:40 PM 59.0 °F 59.0 °F 100% 30.17 in 0.8 mi NNW 9.2 mph - N/A   Light Drizzle
4:40 PM 59.0 °F 59.0 °F 100% 30.16 in 0.8 mi NNW 11.5 mph - N/A   Light Drizzle
5:14 PM 59.0 °F 59.0 °F 100% 30.19 in 1.0 mi NNW 11.5 mph - N/A   Light Drizzle
5:47 PM 59.0 °F 59.0 °F 100% 30.20 in 1.0 mi NNW 11.5 mph - N/A   Light Drizzle
6:17 PM 59.0 °F 59.0 °F 100% 30.20 in 3.0 mi NNW 11.5 mph - N/A   Light Drizzle
6:44 PM 59.0 °F 59.0 °F 100% 30.20 in 3.0 mi NNW 11.5 mph - N/A   Light Drizzle
7:43 PM 59.0 °F 59.0 °F 100% 30.22 in 3.0 mi WNW 6.9 mph - N/A   Light Drizzle
8:40 PM 59.0 °F 59.0 °F 100% 30.21 in 3.0 mi Calm Calm - N/A   Light Drizzle